SCP
0 0 0 0 0 0 -0 0 0 0 0 0 0 0 0 0 0 0 0 0 -0 -0 0 0 0 0 0 0 0 0 0 0 0 0 0 0 0 0 0 0 0 0 0 0
0 0 0 0 0 0 0 0 0 0 0 0 0 0 0 0 0 0 0 0 0 0 0 0 0 0 0 0 0 0 0 0 0 0 0 0 0 0 0 0 0 0 0 0
0 0 0 0 0 0 0 0 0 0 0 0 0 0 0 0 0 0 0 0 0 0 0 0 0 0 0 0 0 0 0 0 0 0 0 0 0 0 0 0 0 0 0 0
0 0 0 0 0 0 0 0 0 0 0 0 0 0 0 0 0 0 0 0 0 0 0 0 0 0 0 0 0 0 0 0 0 0 0 0 0 0 0 0 0 0 0 0
0 0 0 0 0 0 0 0 0 0 0 0 0 0 0 0 0 0 0 0 0 0 0 0 0 0 0 0 0 0 0 0 0 0 0 0 0 0 0 0 0 0 0 0
0 0 0 0 0 0 0 0 0 0 0 0 0 0 0 0 0 0 0 0 0 0 0 0 0 0 0 0 0 0 0 0 0 0 0 0 0 0 0 0 0 0 0 0
0 0 0 0 0 0 0 0 0 0 0 0 0 0 0 0 0 0 0 0 0 0 0 0 0 0 0 0 0 0 0 0 0 0 0 0 0 0 0 0 0 0 0 0
0 0 0 0 0 0 0 0 0 0 0 0 0 0 0 0 0 0 0 0 0 0 0 0 0 0 0 0 0 0 0 0 0 0 0 0 0 0 0 0 0 0 0 0
0 0 0 0 0 0 0 0 0 0 0 0 0 0 0 0 0 0 0 0 0 0 0 0 0 0 0 0 0 0 0 0 0 0 0 0 0 0 0 0 0 0 0 0
0 0 0 0 0 0 0 0 0 0 0 0 0 0 0 0 0 0 0 0 0 0 0 0 0 0 0 0 0 0 0 0 0 0 0 0 0 0 0 0 0 0 0 0
0 0 0 0 0 0 0 0 0 0 0 0 0 0 0 0 0 0 0 0 0 0 0 0 0 0 0 0 0 0 0 0 0 0 0 0 0 0 0 0 0 0 0 0
0 0 0 0 0 0 0 0 0 0 0 0 0 0 0 0 0 0 0 0 0 0 0 0 0 0 0 0 0 0 0 0 0 0 0 0 0 0 0 0 0 0 0 0
0 0 0 0 0 0 0 0 0 0 0 0 0 0 0 0 0 0 0 0 0 0 0 0 0 0 0 0 0 0 0 0 0 0 0 0 0 0 0 0 0 0 0 0
0 0 0 0 0 0 0 0 0 0 0 0 0 0 0 0 0 0 0 0 0 0 0 0 0 0 0 0 0 0 0 0 0 0 0 0 0 0 0 0 0 0 0 0
0 0 0 0 0 0 0 0 0 0 0 0 0 -0 0 0 0 0 0 0 0 0 0 0 0 0 0 0 0 0 0 0 0 0 0 0 0 0 0 0 0 0 0 0
0 0 0 0 0 0 0 0 0 0 0 0 -0 0 0 0 0 0 0 0 0 0 0 0 0 0 0 0 0 0 0 0 0 0 0 0 0 0 0 0 0 0 0 0
0 0 0 0 0 0 0 0 0 0 0 0 0 -0 0 0 0 0 0 0 0 0 0 0 0 0 0 0 0 0 0 0 0 0 0 0 0 0 0 0 0 0 0 0
0 0 0 0 0 0 0 0 0 0 0 0 0 0 0 0 0 0 0 0 0 0 0 0 0 0 0 0 0 0 0 0 0 0 0 -0 0 0 0 0 0 0 0 0
0 0 0 0 0 0 0 0 0 0 0 0 0 0 0 0 0 0 0 0 0 0 0 0 0 0 0 0 0 0 0 -0 -0 0 0 0 0 0 0 0 0 0 0 0
0 0 0 0 0 0 0 0 0 0 0 0 0 0 0 0 0 0 0 0 0 0 0 0 0 0 0 0 0 0 0 0 0 0 0 0 0 0 0 0 0 0 0 0
0 0 0 0 0 0 0 0 0 0 0 0 0 0 0 0 0 0 0 0 0 0 0 0 0 0 0 0 0 0 0 0 0 0 0 0 0 0 0 0 0 0 0 0
0 0 0 0 0 0 0 0 0 0 0 0 0 0 0 0 0 0 0 0 0 0 0 0 0 0 0 0 0 0 0 0 0 0 0 0 0 0 0 0 0 0 0 0
0 0 0 0 0 0 0 0 0 -0 -0 0 0 -0 0 0 0 0 0 0 -0 0 0 0 0 0 0 0 0 0 0 0 0 0 0 0 0 0 0 0 0 0 0 0
0 0 0 0 0 0 0 0 0 0 0 -0 0 0 -0 0 0 0 0 -0 0 0 0 0 0 0 0 0 0 0 0 0 0 0 0 0 0 0 0 0 0 0 0 0
0 0 0 0 0 0 -0 -0 -0 -0 0 0 0 -0 0 0 0 0 0 0 0 0 0 0 -0 0 0 0 0 0 0 0 0 0 0 0 0 0 0 0 0 0 0 0
0 0 0 0 0 0 -0 -0 -0 0 0 0 -0 -0 0 0 0 0 0 0 0 0 0 0 0 0 0 0 0 0 0 0 0 0 0 0 0 0 0 0 0 0 0 0
0 0 0 0 0 0 0 0 0 0 0 0 0 0 -0 0 0 0 0 0 0 0 0 0 0 0 0 0 0 0 0 0 0 0 0 0 0 0 0 0 0 0 0 0
Wind_Speed_500mb
44 45 43 44 48 46 42 23 7 16 7 4 4 3 4 13 9 6 3 6 12 11 9 8 8 15 13 16 22 17 9 11 8 12 7 2 6 11 12 10 9 4 8 12
39 40 39 37 41 40 42 36 13 15 10 5 3 10 6 4 8 7 7 5 4 4 6 7 14 12 6 20 18 20 16 1 6 12 11 4 6 8 9 10 7 13 11 12
36 36 35 32 32 28 28 13 7 8 17 13 4 5 5 9 16 5 8 6 5 8 8 13 12 7 4 5 8 14 18 7 15 18 14 9 9 9 10 10 8 9 11 9
35 31 30 26 26 19 15 6 3 2 4 8 9 4 5 4 11 10 14 3 6 4 6 12 3 8 5 4 8 7 9 11 7 4 9 9 8 9 12 10 8 9 10 12
26 25 25 23 18 11 8 6 3 2 1 6 6 6 5 5 8 3 8 6 22 11 3 9 8 13 9 9 1 6 3 7 7 6 6 9 6 12 14 12 9 10 7 10
20 20 17 21 10 6 5 4 3 4 4 4 3 3 5 5 10 12 18 6 9 10 13 11 4 2 22 23 8 8 12 13 7 7 9 7 9 16 11 6 4 8 10 13
14 13 12 17 9 2 2 3 3 3 5 1 4 4 10 7 5 7 18 29 8 13 16 11 11 23 30 24 1 7 5 12 6 8 8 8 8 5 10 16 5 2 8 12
12 9 13 15 17 6 5 4 4 3 2 4 9 2 5 18 19 10 12 14 14 15 9 7 10 12 15 14 11 14 5 6 6 10 8 7 5 7 12 10 3 3 13 17
12 12 13 12 7 9 6 2 11 5 2 8 7 4 6 5 6 11 9 17 27 6 6 6 6 5 1 7 16 13 12 6 9 6 11 15 12 9 18 15 3 15 18 25
11 12 12 9 3 2 8 2 8 12 9 14 13 7 4 5 2 4 8 22 13 4 4 5 6 6 3 7 7 1 6 7 7 7 5 10 9 11 16 11 12 42 32 29
10 11 10 9 8 7 6 7 7 11 12 30 27 13 14 10 2 2 12 12 6 7 2 6 7 9 10 7 9 8 3 2 3 5 7 10 14 14 14 11 12 50 37 29
11 11 11 10 7 10 11 3 6 9 16 19 16 19 30 42 50 25 10 3 6 8 2 3 2 6 6 8 6 7 7 11 5 10 8 11 13 5 18 35 57 44 36 27
12 12 12 11 9 9 9 12 12 16 17 41 33 26 6 19 45 41 17 10 12 4 8 5 5 4 5 6 10 7 6 19 5 7 13 17 13 10 34 44 56 39 30 26
13 14 13 12 12 11 16 17 11 12 7 9 15 12 23 14 21 23 49 58 28 22 25 11 4 4 5 4 7 3 10 22 8 3 8 6 9 29 43 44 39 36 30 26
13 14 13 12 13 14 18 20 20 20 14 7 32 63 32 19 51 46 37 43 41 39 7 7 7 6 2 3 2 6 9 10 9 9 32 15 27 48 49 44 42 37 31 29
13 14 13 12 16 15 15 4 4 6 13 8 7 33 35 23 31 36 37 48 57 35 14 11 13 14 8 5 5 18 12 18 21 5 26 2 49 47 46 45 42 30 16 18
17 17 18 16 17 18 9 5 5 22 7 9 10 15 12 31 14 20 46 50 35 30 17 14 12 9 13 7 9 26 34 21 20 24 26 8 47 47 43 43 37 30 28 26
18 19 18 14 13 18 21 17 21 24 17 9 5 9 21 13 8 6 21 27 33 27 19 12 14 8 8 8 33 49 39 44 32 30 43 40 47 46 49 43 45 42 38 32
15 14 10 11 12 7 5 10 5 14 14 6 6 4 8 23 9 8 5 15 6 8 7 12 17 7 11 17 28 62 67 68 41 31 30 40 57 53 48 53 54 46 41 34
10 6 6 2 3 7 12 5 4 9 14 16 9 7 10 15 14 9 13 3 4 6 10 18 7 15 38 39 35 50 55 64 54 37 40 56 57 56 57 65 57 46 40 35
5 2 4 6 10 6 2 4 5 4 7 10 10 22 12 18 3 5 5 4 5 7 7 12 8 7 22 69 61 62 50 55 60 46 54 53 62 60 65 65 51 41 34 30
8 5 9 8 4 6 5 3 5 7 6 7 9 14 20 12 18 14 9 4 4 8 3 3 7 9 40 55 83 66 41 42 48 62 64 54 59 62 67 60 49 40 32 26
11 4 4 5 7 5 7 7 6 5 7 6 9 10 8 9 15 10 2 7 7 5 5 7 9 22 34 38 55 72 40 36 45 48 54 52 58 66 63 55 43 35 27 22
6 7 5 7 6 8 8 7 7 15 20 27 30 15 8 9 6 6 6 6 5 4 4 9 5 15 22 32 43 61 49 38 56 55 57 58 70 65 53 42 35 26 23 24
7 6 7 10 17 14 14 22 22 30 43 27 8 12 9 5 5 7 6 5 7 7 8 6 27 27 14 32 49 59 51 52 63 67 71 76 69 59 49 37 30 25 26 25
7 9 7 15 7 14 9 34 35 23 14 13 9 6 4 10 6 8 10 5 5 6 6 27 22 5 26 48 62 65 63 67 71 72 73 65 51 45 43 41 42 41 38 35
7 10 21 29 25 24 35 37 43 25 10 3 5 6 5 2 5 6 6 6 6 22 40 31 10 25 41 51 63 72 75 76 74 67 59 56 49 47 50 53 45 37 32 29
Wind_Direction_500mb
310 314 321 327 328 333 339 340 329 349 213 55 40 124 313 337 329 23 257 170 221 225 203 264 251 218 219 183 150 165 187 136 167 195 316 98 143 173 144 130 222 178 149 274
307 312 318 325 329 342 344 327 293 9 155 120 354 315 301 312 357 352 8 317 48 301 249 269 217 235 294 174 157 167 183 246 76 357 353 335 185 175 124 109 82 188 142 257
302 308 311 319 323 335 335 317 338 5 65 47 87 14 350 331 354 146 2 265 26 354 277 213 247 245 317 186 140 138 132 123 158 190 201 148 160 168 146 132 129 173 218 272
296 302 301 309 313 324 322 288 273 41 350 353 346 285 338 357 355 360 349 308 54 326 286 323 291 330 301 26 149 98 127 158 149 194 172 134 149 168 169 179 172 155 244 198
294 301 310 306 301 314 278 289 333 347 233 306 315 344 60 31 336 316 325 45 328 300 210 150 292 357 355 276 270 118 39 166 143 150 169 136 203 240 207 204 202 241 251 247
294 302 325 316 303 320 248 249 258 305 343 21 18 284 38 36 357 266 238 34 334 286 252 229 254 357 311 263 279 216 142 136 110 220 152 107 311 229 199 142 104 139 181 215
295 282 320 326 347 352 306 226 265 171 271 162 204 350 329 278 256 249 286 299 210 330 322 310 294 319 351 336 292 145 165 111 101 140 114 220 246 349 143 120 106 205 100 120
306 288 306 327 329 327 298 265 210 203 239 266 294 330 281 308 297 243 269 306 325 316 305 51 8 350 358 327 356 336 188 127 108 145 184 295 134 186 151 135 189 250 137 138
305 301 300 314 333 337 322 297 183 213 359 248 246 357 280 267 300 321 278 294 321 287 86 91 178 212 325 308 311 337 0 23 116 189 164 202 226 179 158 109 293 200 150 151
308 294 298 330 285 27 338 306 205 203 245 271 266 216 242 262 268 257 316 341 337 24 95 121 155 208 230 222 237 102 337 335 161 167 161 283 240 146 129 107 236 169 167 160
315 315 312 305 275 259 320 309 280 209 243 268 259 246 234 228 295 112 323 352 357 346 146 148 181 198 209 203 222 175 184 45 330 10 87 253 184 128 160 194 144 162 160 157
344 327 316 319 320 278 261 278 258 263 261 264 261 262 255 254 255 271 263 260 334 257 269 261 221 174 154 193 238 116 198 187 175 198 225 293 222 218 195 158 151 155 152 156
318 320 327 316 308 311 287 296 301 293 284 291 275 281 289 257 247 243 235 243 222 261 345 289 267 226 136 191 240 163 253 170 186 145 243 245 216 147 155 161 154 151 156 152
322 316 299 306 299 290 298 307 309 295 265 284 287 293 276 251 228 234 229 237 238 282 301 346 309 245 187 194 278 217 211 148 200 227 303 311 189 164 155 149 151 149 147 146
317 320 312 289 302 297 300 303 289 261 242 283 297 302 304 266 233 232 235 247 238 254 260 221 226 232 227 231 206 266 204 177 159 217 206 192 181 167 165 161 157 152 145 138
306 307 318 290 293 296 319 308 8 150 209 276 295 299 297 305 256 240 231 234 228 226 207 211 225 249 196 124 213 277 258 214 198 158 170 282 183 173 166 160 156 152 150 155
288 299 308 291 278 285 286 279 208 208 278 288 296 282 287 315 310 228 220 221 220 209 212 222 203 204 205 164 189 235 274 289 237 184 173 262 171 178 175 166 157 157 162 160
283 295 297 286 271 283 287 287 261 259 271 262 273 275 315 348 305 250 190 193 188 208 213 190 185 212 200 242 208 230 262 286 288 194 189 202 180 172 170 172 164 169 170 171
277 293 296 285 268 267 292 318 308 227 219 240 253 262 274 343 343 310 231 179 151 201 199 205 159 191 215 209 207 215 226 231 246 221 205 187 173 174 174 176 175 177 176 180
267 293 283 314 210 268 288 264 251 228 215 223 240 229 255 327 338 320 340 243 143 189 234 169 190 238 228 233 228 224 223 227 226 187 168 175 179 186 184 183 180 187 180 180
194 189 251 247 289 299 245 251 221 221 253 232 246 240 253 268 213 286 214 298 178 208 238 169 228 254 220 224 230 239 240 227 218 215 191 194 195 192 182 177 181 180 176 181
192 208 266 257 231 188 247 219 206 213 256 229 215 240 223 255 214 211 222 265 268 221 336 179 252 239 230 221 217 226 233 224 222 216 206 201 200 194 181 177 174 173 178 180
207 231 222 216 212 229 220 208 227 248 218 264 310 300 246 233 216 236 225 257 231 311 198 232 228 243 224 224 221 214 208 197 197 197 197 192 190 179 173 167 167 166 168 168
181 187 229 224 198 234 206 218 225 269 262 272 283 266 266 233 186 196 224 235 277 280 273 244 252 288 258 231 208 195 192 194 188 179 178 176 167 161 162 163 158 161 165 165
199 196 241 226 238 266 274 278 274 283 286 283 260 248 227 203 230 214 233 235 236 224 239 264 332 315 224 183 175 171 172 170 170 169 164 155 153 152 146 143 140 142 139 145
207 233 257 258 288 279 297 301 293 312 296 271 233 258 241 212 199 195 211 248 216 273 316 325 327 221 163 161 162 161 162 162 156 151 147 144 146 145 140 132 127 118 112 114
224 247 242 254 276 272 265 280 288 294 268 253 241 244 270 335 197 227 213 230 296 344 342 343 70 122 137 148 150 154 154 144 144 144 143 141 141 141 139 137 133 123 115 107
Wind_Speed_850mb
44 45 43 44 48 46 42 23 7 16 7 4 4 3 4 13 9 6 3 6 12 11 9 8 8 15 13 16 22 17 9 11 8 12 7 2 6 11 12 10 9 4 8 12
39 40 39 37 41 40 42 36 13 15 10 5 3 10 6 4 8 7 7 5 4 4 6 7 14 12 6 20 18 20 16 1 6 12 11 4 6 8 9 10 7 13 11 12
36 36 35 32 32 28 28 13 7 8 17 13 4 5 5 9 16 5 8 6 5 8 8 13 12 7 4 5 8 14 18 7 15 18 14 9 9 9 10 10 8 9 11 9
35 31 30 26 26 19 15 6 3 2 4 8 9 4 5 4 11 10 14 3 6 4 6 12 3 8 5 4 8 7 9 11 7 4 9 9 8 9 12 10 8 9 10 12
26 25 25 23 18 11 8 6 3 2 1 6 6 6 5 5 8 3 8 6 22 11 3 9 8 13 9 9 1 6 3 7 7 6 6 9 6 12 14 12 9 10 7 10
20 20 17 21 10 6 5 4 3 4 4 4 3 3 5 5 10 12 18 6 9 10 13 11 4 2 22 23 8 8 12 13 7 7 9 7 9 16 11 6 4 8 10 13
14 13 12 17 9 2 2 3 3 3 5 1 4 4 10 7 5 7 18 29 8 13 16 11 11 23 30 24 1 7 5 12 6 8 8 8 8 5 10 16 5 2 8 12
12 9 13 15 17 6 5 4 4 3 2 4 9 2 5 18 19 10 12 14 14 15 9 7 10 12 15 14 11 14 5 6 6 10 8 7 5 7 12 10 3 3 13 17
12 12 13 12 7 9 6 2 11 5 2 8 7 4 6 5 6 11 9 17 27 6 6 6 6 5 1 7 16 13 12 6 9 6 11 15 12 9 18 15 3 15 18 25
11 12 12 9 3 2 8 2 8 12 9 14 13 7 4 5 2 4 8 22 13 4 4 5 6 6 3 7 7 1 6 7 7 7 5 10 9 11 16 11 12 42 32 29
10 11 10 9 8 7 6 7 7 11 12 30 27 13 14 10 2 2 12 12 6 7 2 6 7 9 10 7 9 8 3 2 3 5 7 10 14 14 14 11 12 50 37 29
11 11 11 10 7 10 11 3 6 9 16 19 16 19 30 42 50 25 10 3 6 8 2 3 2 6 6 8 6 7 7 11 5 10 8 11 13 5 18 35 57 44 36 27
12 12 12 11 9 9 9 12 12 16 17 41 33 26 6 19 45 41 17 10 12 4 8 5 5 4 5 6 10 7 6 19 5 7 13 17 13 10 34 44 56 39 30 26
13 14 13 12 12 11 16 17 11 12 7 9 15 12 23 14 21 23 49 58 28 22 25 11 4 4 5 4 7 3 10 22 8 3 8 6 9 29 43 44 39 36 30 26
13 14 13 12 13 14 18 20 20 20 14 7 32 63 32 19 51 46 37 43 41 39 7 7 7 6 2 3 2 6 9 10 9 9 32 15 27 48 49 44 42 37 31 29
13 14 13 12 16 15 15 4 4 6 13 8 7 33 35 23 31 36 37 48 57 35 14 11 13 14 8 5 5 18 12 18 21 5 26 2 49 47 46 45 42 30 16 18
17 17 18 16 17 18 9 5 5 22 7 9 10 15 12 31 14 20 46 50 35 30 17 14 12 9 13 7 9 26 34 21 20 24 26 8 47 47 43 43 37 30 28 26
18 19 18 14 13 18 21 17 21 24 17 9 5 9 21 13 8 6 21 27 33 27 19 12 14 8 8 8 33 49 39 44 32 30 43 40 47 46 49 43 45 42 38 32
15 14 10 11 12 7 5 10 5 14 14 6 6 4 8 23 9 8 5 15 6 8 7 12 17 7 11 17 28 62 67 68 41 31 30 40 57 53 48 53 54 46 41 34
10 6 6 2 3 7 12 5 4 9 14 16 9 7 10 15 14 9 13 3 4 6 10 18 7 15 38 39 35 50 55 64 54 37 40 56 57 56 57 65 57 46 40 35
5 2 4 6 10 6 2 4 5 4 7 10 10 22 12 18 3 5 5 4 5 7 7 12 8 7 22 69 61 62 50 55 60 46 54 53 62 60 65 65 51 41 34 30
8 5 9 8 4 6 5 3 5 7 6 7 9 14 20 12 18 14 9 4 4 8 3 3 7 9 40 55 83 66 41 42 48 62 64 54 59 62 67 60 49 40 32 26
11 4 4 5 7 5 7 7 6 5 7 6 9 10 8 9 15 10 2 7 7 5 5 7 9 22 34 38 55 72 40 36 45 48 54 52 58 66 63 55 43 35 27 22
6 7 5 7 6 8 8 7 7 15 20 27 30 15 8 9 6 6 6 6 5 4 4 9 5 15 22 32 43 61 49 38 56 55 57 58 70 65 53 42 35 26 23 24
7 6 7 10 17 14 14 22 22 30 43 27 8 12 9 5 5 7 6 5 7 7 8 6 27 27 14 32 49 59 51 52 63 67 71 76 69 59 49 37 30 25 26 25
7 9 7 15 7 14 9 34 35 23 14 13 9 6 4 10 6 8 10 5 5 6 6 27 22 5 26 48 62 65 63 67 71 72 73 65 51 45 43 41 42 41 38 35
7 10 21 29 25 24 35 37 43 25 10 3 5 6 5 2 5 6 6 6 6 22 40 31 10 25 41 51 63 72 75 76 74 67 59 56 49 47 50 53 45 37 32 29
Wind_Direction_850mb
310 314 321 327 328 333 339 340 329 349 213 55 40 124 313 337 329 23 257 170 221 225 203 264 251 218 219 183 150 165 187 136 167 195 316 98 143 173 144 130 222 178 149 274
307 312 318 325 329 342 344 327 293 9 155 120 354 315 301 312 357 352 8 317 48 301 249 269 217 235 294 174 157 167 183 246 76 357 353 335 185 175 124 109 82 188 142 257
302 308 311 319 323 335 335 317 338 5 65 47 87 14 350 331 354 146 2 265 26 354 277 213 247 245 317 186 140 138 132 123 158 190 201 148 160 168 146 132 129 173 218 272
296 302 301 309 313 324 322 288 273 41 350 353 346 285 338 357 355 360 349 308 54 326 286 323 291 330 301 26 149 98 127 158 149 194 172 134 149 168 169 179 172 155 244 198
294 301 310 306 301 314 278 289 333 347 233 306 315 344 60 31 336 316 325 45 328 300 210 150 292 357 355 276 270 118 39 166 143 150 169 136 203 240 207 204 202 241 251 247
294 302 325 316 303 320 248 249 258 305 343 21 18 284 38 36 357 266 238 34 334 286 252 229 254 357 311 263 279 216 142 136 110 220 152 107 311 229 199 142 104 139 181 215
295 282 320 326 347 352 306 226 265 171 271 162 204 350 329 278 256 249 286 299 210 330 322 310 294 319 351 336 292 145 165 111 101 140 114 220 246 349 143 120 106 205 100 120
306 288 306 327 329 327 298 265 210 203 239 266 294 330 281 308 297 243 269 306 325 316 305 51 8 350 358 327 356 336 188 127 108 145 184 295 134 186 151 135 189 250 137 138
305 301 300 314 333 337 322 297 183 213 359 248 246 357 280 267 300 321 278 294 321 287 86 91 178 212 325 308 311 337 0 23 116 189 164 202 226 179 158 109 293 200 150 151
308 294 298 330 285 27 338 306 205 203 245 271 266 216 242 262 268 257 316 341 337 24 95 121 155 208 230 222 237 102 337 335 161 167 161 283 240 146 129 107 236 169 167 160
315 315 312 305 275 259 320 309 280 209 243 268 259 246 234 228 295 112 323 352 357 346 146 148 181 198 209 203 222 175 184 45 330 10 87 253 184 128 160 194 144 162 160 157
344 327 316 319 320 278 261 278 258 263 261 264 261 262 255 254 255 271 263 260 334 257 269 261 221 174 154 193 238 116 198 187 175 198 225 293 222 218 195 158 151 155 152 156
318 320 327 316 308 311 287 296 301 293 284 291 275 281 289 257 247 243 235 243 222 261 345 289 267 226 136 191 240 163 253 170 186 145 243 245 216 147 155 161 154 151 156 152
322 316 299 306 299 290 298 307 309 295 265 284 287 293 276 251 228 234 229 237 238 282 301 346 309 245 187 194 278 217 211 148 200 227 303 311 189 164 155 149 151 149 147 146
317 320 312 289 302 297 300 303 289 261 242 283 297 302 304 266 233 232 235 247 238 254 260 221 226 232 227 231 206 266 204 177 159 217 206 192 181 167 165 161 157 152 145 138
306 307 318 290 293 296 319 308 8 150 209 276 295 299 297 305 256 240 231 234 228 226 207 211 225 249 196 124 213 277 258 214 198 158 170 282 183 173 166 160 156 152 150 155
288 299 308 291 278 285 286 279 208 208 278 288 296 282 287 315 310 228 220 221 220 209 212 222 203 204 205 164 189 235 274 289 237 184 173 262 171 178 175 166 157 157 162 160
283 295 297 286 271 283 287 287 261 259 271 262 273 275 315 348 305 250 190 193 188 208 213 190 185 212 200 242 208 230 262 286 288 194 189 202 180 172 170 172 164 169 170 171
277 293 296 285 268 267 292 318 308 227 219 240 253 262 274 343 343 310 231 179 151 201 199 205 159 191 215 209 207 215 226 231 246 221 205 187 173 174 174 176 175 177 176 180
267 293 283 314 210 268 288 264 251 228 215 223 240 229 255 327 338 320 340 243 143 189 234 169 190 238 228 233 228 224 223 227 226 187 168 175 179 186 184 183 180 187 180 180
194 189 251 247 289 299 245 251 221 221 253 232 246 240 253 268 213 286 214 298 178 208 238 169 228 254 220 224 230 239 240 227 218 215 191 194 195 192 182 177 181 180 176 181
192 208 266 257 231 188 247 219 206 213 256 229 215 240 223 255 214 211 222 265 268 221 336 179 252 239 230 221 217 226 233 224 222 216 206 201 200 194 181 177 174 173 178 180
207 231 222 216 212 229 220 208 227 248 218 264 310 300 246 233 216 236 225 257 231 311 198 232 228 243 224 224 221 214 208 197 197 197 197 192 190 179 173 167 167 166 168 168
181 187 229 224 198 234 206 218 225 269 262 272 283 266 266 233 186 196 224 235 277 280 273 244 252 288 258 231 208 195 192 194 188 179 178 176 167 161 162 163 158 161 165 165
199 196 241 226 238 266 274 278 274 283 286 283 260 248 227 203 230 214 233 235 236 224 239 264 332 315 224 183 175 171 172 170 170 169 164 155 153 152 146 143 140 142 139 145
207 233 257 258 288 279 297 301 293 312 296 271 233 258 241 212 199 195 211 248 216 273 316 325 327 221 163 161 162 161 162 162 156 151 147 144 146 145 140 132 127 118 112 114
224 247 242 254 276 272 265 280 288 294 268 253 241 244 270 335 197 227 213 230 296 344 342 343 70 122 137 148 150 154 154 144 144 144 143 141 141 141 139 137 133 123 115 107